Location: Erskine
(52.3216°N, 112.8806°W)
Time: 06:40:37
(UTC+00:00)

BlueWalker 3 - Visible Passes

Search period start: 05 June 2023 00:00
Search period end: 15 June 2023 00:00
Orbit: 494 x 513 km, 53.2° (Epoch: 04 June)

Date Brightness Start Highest point End Pass type
(mag) Time Alt. Az. Time Alt. Az. Time Alt. Az.
05 Jun 2.1 04:56:46 10° W 05:00:38 77° N 05:04:31 10° E visible
05 Jun 1.8 06:35:22 10° WNW 06:39:14 75° SSW 06:42:49 12° ESE visible
05 Jun 3.1 08:14:11 10° W 08:17:22 24° SW 08:17:27 24° SW visible
06 Jun 2.1 04:36:22 10° W 04:40:13 77° N 04:44:06 10° E visible
06 Jun 1.8 06:14:57 10° WNW 06:18:49 74° SSW 06:22:18 13° ESE visible
06 Jun 3.1 07:53:48 10° W 07:56:57 24° SW 07:56:57 24° SW visible
07 Jun 1.9 05:54:32 10° WNW 05:58:23 73° SSW 06:01:57 12° ESE visible
07 Jun 3.2 07:33:23 10° W 07:36:31 23° SW 07:36:36 23° SW visible
08 Jun 1.9 05:34:06 10° WNW 05:37:57 72° SSW 05:41:42 11° ESE visible
08 Jun 3.2 07:12:58 10° W 07:16:04 23° SW 07:16:21 23° SSW visible
09 Jun 1.9 05:13:39 10° WNW 05:17:30 71° SSW 05:21:22 10° ESE visible
09 Jun 3.3 06:52:32 10° W 06:55:36 22° SW 06:56:11 22° SSW visible
10 Jun 1.9 04:53:12 10° WNW 04:57:02 70° SSW 05:00:54 10° ESE visible
10 Jun 3.4 06:32:06 10° W 06:35:08 22° SW 06:36:04 20° SSW visible
11 Jun 3.5 06:11:39 10° W 06:14:39 22° SW 06:15:59 18° S visible
12 Jun 3.5 05:51:12 10° W 05:54:09 21° SW 05:55:58 16° S visible
13 Jun 3.6 05:30:43 10° W 05:33:39 21° SW 05:35:58 13° S visible
14 Jun 3.7 05:10:15 10° W 05:13:08 20° SW 05:16:02 10° S visible
